User: anonymous   Login
Location: Unspecified
(0.0000°N, 0.0000°E)
Time: 18:51:47
(UTC+00:00)
Language:

Orbcomm A3 (FM07) - Orbit

View from above orbital plane
View from above orbital plane
View from above satellite
View from above satellite

Ground track
Ground track

The orbit data is extracted from the following two-line orbital elements,

1 25119U 97084H   17145.88050590 +.00000131 +00000-0 +88565-4 0  9990
2 25119 045.0172 334.1456 0003961 166.2589 193.8368 14.38555432017074
Epoch (UTC): 25 May 2017 21:07:55
Eccentricity: 0.0003961
inclination: 45.0172°
perigee height: 760 km
apogee height: 766 km
right ascension of ascending node: 334.1456°
argument of perigee: 166.2589°
revolutions per day: 14.38555432
mean anomaly at epoch: 193.8368°
orbit number at epoch: 1707

The dashed part of the orbit path shows where the satellite is in the earth's shadow,  

DLR